RH
8 8 9 14 21 16 19 13 16 14 14 12 12 12 14 13 15 25 21 23 21 24 20 20 18 17 18 17 18 18 18 19 19 20 21 21 21 20 20 19 18 16 8 5 4 4 4 5 7
8 9 10 16 16 15 17 15 16 16 15 13 10 10 10 12 13 16 20 22 24 21 22 21 18 19 18 18 18 19 19 20 21 22 22 21 21 21 19 17 13 14 10 7 6 5 4 4 5
8 10 14 15 13 15 20 18 17 16 15 13 10 9 10 12 14 17 18 22 24 21 21 21 19 20 20 19 19 20 21 22 22 22 22 21 19 17 16 15 12 10 9 9 7 6 5 5 5
10 11 11 13 16 14 16 16 16 15 14 12 12 12 9 11 16 15 19 24 25 26 23 20 20 21 21 21 21 22 23 23 22 21 19 19 12 11 11 9 8 9 9 9 7 7 5 5 5
11 12 13 13 14 14 13 14 15 15 14 13 13 14 13 12 13 16 20 23 25 25 25 19 20 21 22 22 24 26 26 22 16 16 13 12 10 10 9 8 7 7 8 8 7 7 6 5 5
16 15 14 15 15 14 12 13 14 14 14 14 14 14 16 14 16 18 20 25 25 25 24 19 19 21 21 23 25 25 21 18 17 14 11 10 9 9 8 8 6 6 7 7 6 7 7 6 5
18 16 15 16 15 15 14 13 14 14 15 15 15 14 16 16 18 21 24 26 26 26 26 21 19 19 21 21 21 20 19 18 17 15 13 10 8 7 7 7 6 6 6 6 6 7 7 8 6
17 17 15 15 15 17 16 15 15 16 16 16 15 15 17 15 19 21 25 26 28 25 27 23 19 19 20 18 18 19 19 18 16 14 13 12 9 7 6 6 6 5 5 6 6 6 7 7 8
16 18 18 19 19 18 16 16 16 16 16 16 16 17 17 18 22 23 24 24 24 23 22 19 18 19 20 22 19 19 19 17 15 14 13 12 11 9 7 6 6 6 5 5 6 6 6 6 7
16 19 19 19 17 17 17 18 18 18 17 18 19 19 21 22 24 24 24 24 23 21 21 19 18 18 20 22 20 20 19 16 16 15 14 13 12 11 10 8 7 6 6 5 5 6 6 6 6
17 17 18 17 18 17 16 15 15 15 15 15 15 16 19 21 23 24 25 25 24 23 22 20 19 18 19 21 21 21 19 17 16 15 15 15 15 16 15 13 11 9 8 6 6 6 6 6 6
19 17 17 17 16 15 15 16 16 16 16 15 16 18 20 22 22 21 22 23 23 22 21 20 19 18 19 20 23 22 20 19 18 17 17 19 21 21 21 20 18 16 13 10 8 7 6 6 7
19 20 19 19 19 19 17 16 16 14 15 16 18 18 20 22 22 23 24 25 25 23 21 20 16 15 16 21 23 23 21 19 18 19 21 23 24 25 25 24 23 22 20 17 14 11 10 9 8
19 18 19 19 20 18 17 16 15 15 15 17 18 18 19 20 21 22 23 23 23 22 21 17 14 14 16 21 23 23 22 21 20 21 24 26 27 28 28 28 27 27 25 23 20 18 16 13 11
18 19 19 19 18 18 16 15 15 15 14 16 16 17 18 19 21 21 21 22 23 22 22 18 15 14 16 21 24 25 24 23 23 24 26 27 29 31 31 31 30 30 30 29 27 25 22 19 17
18 18 20 21 19 17 16 13 15 15 15 15 15 18 18 19 20 21 22 23 23 23 22 17 16 15 17 20 24 26 26 25 25 26 29 30 32 32 33 33 33 33 32 32 32 31 29 27 24
18 15 17 17 16 16 15 13 14 15 16 15 16 18 20 20 19 20 22 23 25 25 23 20 18 18 20 23 27 28 28 29 28 29 32 33 35 36 36 35 35 35 34 33 31 30 30 30 29
18 16 14 14 18 15 15 14 13 16 17 15 16 18 21 20 20 20 22 24 26 25 23 21 20 22 23 24 28 31 31 31 32 32 34 37 39 40 40 40 39 37 36 35 34 33 31 30 29
16 14 14 14 18 17 15 15 15 15 16 16 17 19 21 21 22 22 22 24 26 27 25 23 23 24 24 26 29 33 34 35 35 35 37 40 42 44 45 45 45 43 42 41 39 38 37 35 34
17 17 16 17 18 18 15 15 14 15 16 16 18 20 22 21 22 23 24 25 27 28 27 26 26 26 27 28 32 36 38 38 38 38 40 42 45 47 49 49 50 49 47 46 45 45 44 42 40
18 18 18 19 20 19 19 14 13 15 15 16 18 20 23 22 22 24 26 26 27 29 28 29 29 29 29 31 35 39 42 41 41 41 43 46 47 49 51 52 53 53 52 52 51 49 48 46 45
20 21 21 22 23 31 20 35 14 16 16 16 18 20 23 23 24 25 26 28 28 29 30 30 31 31 34 35 38 42 44 46 46 44 45 47 49 50 52 53 54 55 56 56 56 55 54 53 50
23 24 24 25 29 31 22 44 14 15 16 16 18 20 23 25 25 27 27 28 29 31 32 34 35 36 38 39 42 46 48 50 51 48 47 48 50 51 53 54 55 56 57 57 57 58 59 57 55
25 25 26 27 30 50 32 28 16 15 18 17 18 20 23 25 27 29 30 31 33 34 35 36 38 40 42 45 48 50 52 53 53 52 53 54 54 55 56 56 57 57 57 58 59 60 58 57 56
27 28 41 51 53 36 31 33 21 20 20 20 20 21 24 26 29 31 32 33 35 36 37 40 43 46 47 49 53 55 55 58 60 58 57 58 58 59 60 60 60 60 60 60 60 60 60 58 57
30 40 45 52 25 25 33 36 25 23 22 22 22 25 27 28 30 33 33 35 38 39 42 46 47 49 53 55 58 60 62 64 64 64 63 64 63 63 63 63 63 62 59 59 61 60 60 60 59
35 37 33 49 38 38 21 21 26 25 24 24 27 28 30 30 31 34 36 39 42 46 48 51 52 52 58 62 63 65 66 67 68 69 68 68 68 67 65 62 62 64 68 67 66 66 65 63 59
38 38 42 51 44 34 22 28 28 31 29 29 32 33 35 36 37 41 45 48 51 56 59 61 59 61 65 68 69 69 71 71 72 71 72 71 70 68 69 74 77 76 75 75 72 68 64 59 54
41 49 43 46 43 43 33 30 40 45 47 44 44 46 47 47 49 52 56 60 62 65 67 68 69 69 71 72 74 75 75 76 75 75 74 75 77 80 88 89 86 81 75 70 64 59 53 50 47
49 59 61 52 58 56 62 48 52 54 58 61 61 61 59 60 60 63 64 66 70 72 75 74 73 72 74 74 77 76 77 76 77 79 85 89 92 92 88 83 79 74 69 63 58 54 49 45 40